QPF
0.01 0.00 0.00 0.00 0.00 0.00 0.01 0.03 0.07 0.05 0.04 0.04 0.02 0.01 0.02 0.05 0.05 0.05 0.03 0.08 0.28 0.15 0.02 0.00 0.00 0.00 0.00 0.00 0.00 0.01 0.04 0.00 0.00 0.00 0.00 0.00 0.00 0.00 0.00 0.00 0.00 0.00 0.00 0.00 0.00 0.00 0.00 0.00 0.00 0.00 0.00 0.00 0.00 0.00
0.01 0.00 0.00 0.00 0.00 0.00 0.01 0.01 0.01 0.02 0.03 0.01 0.00 0.00 0.01 0.02 0.03 0.02 0.02 0.13 0.25 0.30 0.12 0.00 0.00 0.00 0.00 0.00 0.00 0.00 0.00 0.00 0.00 0.00 0.00 0.00 0.00 0.00 0.00 0.00 0.00 0.00 0.00 0.00 0.00 0.00 0.00 0.00 0.00 0.00 0.00 0.00 0.00 0.00
0.00 0.00 0.00 0.00 0.00 0.00 0.01 0.01 0.01 0.02 0.02 0.00 0.00 0.00 0.00 0.01 0.01 0.01 0.05 0.10 0.68 0.47 0.38 0.04 0.00 0.00 0.00 0.00 0.00 0.00 0.00 0.00 0.00 0.00 0.00 0.00 0.00 0.00 0.00 0.00 0.00 0.00 0.00 0.00 0.00 0.00 0.00 0.00 0.00 0.00 0.00 0.00 0.00 0.00
0.00 0.00 0.00 0.00 0.00 0.00 0.00 0.00 0.00 0.01 0.00 0.00 0.00 0.00 0.01 0.01 0.01 0.09 0.08 0.34 1.37 0.47 0.29 0.07 0.00 0.00 0.00 0.00 0.00 0.00 0.00 0.00 0.00 0.00 0.00 0.00 0.00 0.00 0.00 0.00 0.00 0.00 0.00 0.00 0.00 0.00 0.00 0.00 0.00 0.00 0.00 0.00 0.00 0.00
0.01 0.00 0.00 0.00 0.00 0.00 0.00 0.01 0.02 0.03 0.01 0.00 0.00 0.00 0.01 0.01 0.05 0.12 0.18 0.75 0.99 0.55 0.21 0.05 0.00 0.00 0.00 0.00 0.00 0.00 0.01 0.00 0.00 0.00 0.00 0.00 0.00 0.00 0.00 0.00 0.00 0.00 0.00 0.00 0.00 0.00 0.00 0.00 0.00 0.00 0.00 0.00 0.00 0.00
0.03 0.02 0.02 0.03 0.03 0.01 0.02 0.04 0.03 0.03 0.01 0.01 0.00 0.00 0.01 0.02 0.13 0.24 0.47 0.54 0.32 0.23 0.10 0.02 0.01 0.00 0.00 0.00 0.00 0.00 0.00 0.01 0.00 0.00 0.00 0.00 0.00 0.00 0.00 0.00 0.00 0.00 0.00 0.00 0.00 0.00 0.00 0.00 0.00 0.00 0.00 0.00 0.00 0.00
0.16 0.13 0.09 0.03 0.02 0.03 0.03 0.04 0.04 0.03 0.03 0.02 0.01 0.02 0.02 0.05 0.21 0.27 0.18 0.21 0.18 0.06 0.01 0.02 0.01 0.01 0.00 0.00 0.00 0.00 0.00 0.01 0.01 0.00 0.00 0.00 0.00 0.00 0.00 0.00 0.00 0.00 0.00 0.00 0.00 0.00 0.00 0.00 0.00 0.00 0.00 0.00 0.00 0.00
0.21 0.13 0.07 0.04 0.03 0.03 0.04 0.05 0.05 0.04 0.03 0.03 0.03 0.02 0.04 0.14 0.33 0.30 0.03 0.06 0.09 0.03 0.00 0.02 0.00 0.01 0.01 0.01 0.01 0.00 0.01 0.02 0.01 0.00 0.00 0.00 0.00 0.00 0.00 0.00 0.00 0.00 0.00 0.00 0.00 0.00 0.00 0.00 0.00 0.00 0.00 0.00 0.00 0.00
0.09 0.08 0.06 0.04 0.03 0.03 0.03 0.04 0.04 0.04 0.04 0.03 0.02 0.04 0.10 0.19 0.30 0.13 0.01 0.01 0.01 0.00 0.01 0.03 0.01 0.01 0.01 0.00 0.00 0.01 0.01 0.00 0.00 0.00 0.00 0.00 0.00 0.00 0.00 0.00 0.00 0.00 0.00 0.00 0.00 0.00 0.00 0.00 0.00 0.00 0.00 0.00 0.00 0.00
0.03 0.03 0.05 0.05 0.06 0.06 0.05 0.03 0.01 0.02 0.02 0.02 0.03 0.05 0.07 0.03 0.03 0.00 0.00 0.00 0.00 0.00 0.01 0.03 0.04 0.02 0.01 0.00 0.00 0.00 0.00 0.00 0.00 0.00 0.00 0.00 0.00 0.00 0.00 0.00 0.00 0.00 0.00 0.00 0.00 0.00 0.00 0.00 0.00 0.00 0.00 0.00 0.00 0.00
0.01 0.02 0.03 0.04 0.05 0.06 0.06 0.04 0.02 0.02 0.03 0.05 0.04 0.05 0.01 0.02 0.02 0.00 0.00 0.00 0.00 0.00 0.00 0.01 0.02 0.03 0.00 0.01 0.01 0.01 0.00 0.00 0.00 0.00 0.00 0.00 0.00 0.00 0.00 0.00 0.00 0.00 0.00 0.00 0.00 0.00 0.00 0.00 0.00 0.00 0.00 0.00 0.00 0.00
0.01 0.01 0.01 0.02 0.02 0.03 0.04 0.02 0.02 0.03 0.06 0.03 0.01 0.01 0.01 0.03 0.02 0.00 0.00 0.00 0.01 0.03 0.00 0.00 0.00 0.01 0.00 0.02 0.03 0.04 0.03 0.01 0.00 0.00 0.00 0.00 0.00 0.00 0.00 0.00 0.00 0.00 0.00 0.00 0.00 0.00 0.00 0.00 0.00 0.00 0.00 0.00 0.00 0.00
0.01 0.01 0.01 0.01 0.01 0.02 0.03 0.05 0.05 0.04 0.01 0.00 0.00 0.00 0.01 0.04 0.04 0.00 0.00 0.00 0.00 0.00 0.00 0.00 0.01 0.03 0.01 0.00 0.02 0.04 0.08 0.05 0.01 0.00 0.00 0.00 0.00 0.00 0.00 0.00 0.00 0.00 0.00 0.00 0.00 0.00 0.00 0.00 0.00 0.00 0.00 0.00 0.00 0.00
0.00 0.00 0.00 0.01 0.04 0.02 0.01 0.01 0.00 0.00 0.00 0.00 0.00 0.00 0.01 0.02 0.00 0.00 0.00 0.00 0.00 0.00 0.00 0.00 0.00 0.00 0.01 0.00 0.00 0.00 0.00 0.01 0.01 0.00 0.00 0.00 0.00 0.00 0.00 0.00 0.00 0.00 0.00 0.00 0.00 0.00 0.00 0.00 0.00 0.00 0.00 0.00 0.00 0.00
0.00 0.00 0.00 0.00 0.00 0.00 0.01 0.00 0.00 0.00 0.00 0.01 0.01 0.01 0.00 0.00 0.00 0.00 0.00 0.00 0.00 0.00 0.00 0.00 0.00 0.00 0.00 0.00 0.00 0.00 0.00 0.00 0.00 0.00 0.00 0.00 0.00 0.00 0.00 0.00 0.00 0.00 0.00 0.00 0.00 0.00 0.00 0.00 0.00 0.00 0.00 0.00 0.00 0.00
0.00 0.00 0.00 0.00 0.00 0.00 0.00 0.00 0.00 0.01 0.03 0.04 0.04 0.03 0.02 0.01 0.01 0.01 0.01 0.00 0.00 0.00 0.00 0.00 0.00 0.00 0.00 0.00 0.00 0.00 0.00 0.00 0.00 0.00 0.00 0.00 0.00 0.01 0.01 0.01 0.01 0.01 0.00 0.00 0.00 0.00 0.00 0.00 0.00 0.00 0.00 0.00 0.00 0.00
0.00 0.00 0.00 0.00 0.00 0.00 0.00 0.00 0.02 0.10 0.13 0.08 0.11 0.12 0.09 0.05 0.03 0.03 0.03 0.01 0.00 0.00 0.00 0.00 0.01 0.01 0.01 0.01 0.01 0.01 0.01 0.01 0.01 0.01 0.01 0.01 0.02 0.02 0.01 0.01 0.00 0.00 0.00 0.00 0.00 0.00 0.00 0.00 0.00 0.00 0.00 0.00 0.00 0.00
0.00 0.00 0.00 0.00 0.00 0.00 0.00 0.00 0.01 0.01 0.03 0.05 0.06 0.13 0.13 0.14 0.12 0.11 0.08 0.07 0.05 0.04 0.04 0.05 0.05 0.04 0.04 0.03 0.04 0.04 0.04 0.03 0.03 0.03 0.04 0.05 0.02 0.00 0.00 0.00 0.00 0.00 0.00 0.00 0.00 0.00 0.00 0.00 0.00 0.00 0.00 0.00 0.00 0.00
0.00 0.00 0.00 0.00 0.00 0.00 0.00 0.00 0.00 0.02 0.05 0.05 0.06 0.05 0.02 0.02 0.02 0.03 0.03 0.02 0.01 0.01 0.02 0.03 0.04 0.06 0.08 0.08 0.08 0.06 0.04 0.01 0.00 0.01 0.01 0.01 0.00 0.00 0.00 0.01 0.01 0.01 0.00 0.00 0.00 0.00 0.00 0.00 0.00 0.00 0.00 0.00 0.00 0.00
0.00 0.00 0.00 0.00 0.00 0.00 0.00 0.00 0.00 0.01 0.04 0.05 0.04 0.01 0.00 0.00 0.00 0.00 0.00 0.00 0.00 0.00 0.00 0.01 0.04 0.06 0.05 0.04 0.03 0.02 0.02 0.01 0.01 0.00 0.01 0.02 0.02 0.03 0.03 0.02 0.01 0.00 0.00 0.00 0.00 0.00 0.00 0.00 0.00 0.00 0.00 0.00 0.00 0.00
0.00 0.00 0.00 0.00 0.00 0.00 0.00 0.00 0.00 0.00 0.00 0.00 0.00 0.00 0.00 0.00 0.00 0.00 0.00 0.00 0.00 0.01 0.03 0.05 0.04 0.03 0.02 0.03 0.04 0.05 0.05 0.05 0.06 0.03 0.01 0.01 0.02 0.02 0.03 0.04 0.04 0.03 0.03 0.04 0.03 0.01 0.00 0.00 0.00 0.00 0.00 0.00 0.00 0.00
0.00 0.00 0.00 0.00 0.00 0.00 0.00 0.00 0.00 0.00 0.00 0.00 0.00 0.00 0.00 0.00 0.00 0.00 0.00 0.00 0.01 0.04 0.03 0.02 0.02 0.01 0.00 0.00 0.01 0.02 0.04 0.06 0.08 0.09 0.07 0.04 0.03 0.03 0.04 0.04 0.04 0.06 0.06 0.05 0.03 0.01 0.00 0.00 0.00 0.00 0.00 0.00 0.00 0.00
0.00 0.00 0.00 0.00 0.00 0.00 0.00 0.00 0.00 0.00 0.00 0.00 0.00 0.00 0.00 0.00 0.00 0.00 0.00 0.01 0.02 0.05 0.03 0.02 0.00 0.00 0.00 0.00 0.00 0.00 0.01 0.01 0.03 0.05 0.06 0.06 0.05 0.05 0.04 0.06 0.07 0.06 0.03 0.01 0.00 0.00 0.00 0.00 0.00 0.00 0.00 0.00 0.00 0.00
0.00 0.00 0.00 0.00 0.00 0.00 0.00 0.00 0.00 0.00 0.00 0.00 0.00 0.00 0.00 0.00 0.00 0.00 0.01 0.02 0.03 0.02 0.01 0.02 0.03 0.02 0.00 0.00 0.00 0.01 0.01 0.00 0.01 0.02 0.02 0.02 0.02 0.03 0.02 0.02 0.01 0.01 0.00 0.00 0.00 0.00 0.00 0.00 0.00 0.00 0.00 0.00 0.00 0.00
0.00 0.00 0.00 0.00 0.00 0.00 0.00 0.00 0.00 0.00 0.00 0.00 0.00 0.00 0.00 0.00 0.00 0.00 0.01 0.03 0.01 0.00 0.01 0.02 0.00 0.00 0.01 0.01 0.01 0.01 0.01 0.00 0.00 0.00 0.01 0.01 0.01 0.01 0.00 0.00 0.00 0.00 0.00 0.00 0.00 0.00 0.00 0.00 0.00 0.00 0.00 0.00 0.00 0.00
0.00 0.00 0.00 0.00 0.00 0.00 0.00 0.00 0.00 0.00 0.00 0.00 0.00 0.00 0.00 0.00 0.00 0.01 0.01 0.03 0.01 0.01 0.01 0.02 0.02 0.00 0.00 0.00 0.00 0.01 0.00 0.00 0.00 0.00 0.00 0.00 0.00 0.00 0.00 0.00 0.00 0.00 0.00 0.00 0.00 0.00 0.00 0.00 0.00 0.00 0.00 0.00 0.00 0.01
0.00 0.00 0.00 0.00 0.00 0.00 0.00 0.00 0.00 0.00 0.00 0.01 0.00 0.00 0.00 0.02 0.01 0.02 0.01 0.01 0.01 0.01 0.01 0.01 0.01 0.00 0.00 0.00 0.00 0.00 0.00 0.00 0.00 0.00 0.00 0.00 0.00 0.00 0.00 0.00 0.00 0.00 0.00 0.00 0.00 0.00 0.00 0.00 0.00 0.00 0.00 0.00 0.00 0.00
0.00 0.00 0.00 0.00 0.00 0.00 0.00 0.00 0.00 0.01 0.01 0.00 0.01 0.01 0.00 0.01 0.02 0.02 0.02 0.02 0.01 0.01 0.00 0.00 0.00 0.00 0.00 0.01 0.01 0.01 0.00 0.00 0.00 0.00 0.00 0.00 0.00 0.00 0.00 0.00 0.00 0.00 0.00 0.00 0.00 0.00 0.00 0.00 0.00 0.00 0.00 0.00 0.00 0.00
0.00 0.00 0.00 0.00 0.00 0.00 0.00 0.01 0.01 0.01 0.00 0.00 0.01 0.01 0.01 0.01 0.03 0.03 0.03 0.03 0.03 0.03 0.01 0.01 0.02 0.01 0.01 0.00 0.00 0.00 0.00 0.00 0.00 0.00 0.00 0.00 0.01 0.00 0.00 0.00 0.00 0.00 0.00 0.00 0.00 0.00 0.00 0.00 0.00 0.00 0.00 0.00 0.00 0.01
0.00 0.00 0.00 0.00 0.00 0.01 0.01 0.01 0.02 0.00 0.00 0.00 0.00 0.00 0.00 0.01 0.02 0.02 0.01 0.01 0.01 0.01 0.01 0.01 0.01 0.01 0.02 0.01 0.00 0.00 0.00 0.00 0.00 0.00 0.00 0.00 0.00 0.00 0.00 0.00 0.00 0.00 0.00 0.00 0.00 0.00 0.00 0.00 0.00 0.00 0.00 0.00 0.01 0.00
0.00 0.00 0.00 0.00 0.00 0.00 0.00 0.00 0.01 0.01 0.00 0.00 0.00 0.01 0.00 0.01 0.01 0.00 0.01 0.02 0.00 0.02 0.01 0.00 0.00 0.00 0.00 0.00 0.00 0.00 0.00 0.00 0.00 0.00 0.00 0.00 0.00 0.00 0.00 0.00 0.00 0.00 0.00 0.00 0.00 0.00 0.00 0.00 0.00 0.00 0.00 0.00 0.00 0.00
0.00 0.00 0.00 0.00 0.01 0.00 0.00 0.00 0.01 0.03 0.03 0.01 0.01 0.01 0.01 0.01 0.00 0.00 0.00 0.01 0.00 0.00 0.00 0.00 0.00 0.00 0.00 0.00 0.00 0.00 0.00 0.00 0.00 0.00 0.00 0.00 0.00 0.00 0.00 0.00 0.00 0.00 0.01 0.00 0.00 0.00 0.00 0.00 0.00 0.00 0.00 0.00 0.00 0.00
0.00 0.00 0.00 0.00 0.00 0.00 0.00 0.00 0.00 0.00 0.00 0.00 0.00 0.01 0.01 0.01 0.01 0.01 0.01 0.00 0.00 0.00 0.00 0.00 0.00 0.00 0.00 0.00 0.00 0.00 0.00 0.00 0.00 0.00 0.00 0.00 0.00 0.00 0.00 0.00 0.00 0.00 0.00 0.00 0.00 0.00 0.00 0.00 0.00 0.00 0.00 0.00 0.00 0.00
MSLP
988.20 989.35 990.52 991.54 992.59 993.69 994.59 995.72 996.50 997.04 997.51 998.77 999.63 1000.66 1001.67 1002.61 1003.77 1004.64 1004.48 1005.06 1004.77 1003.26 1001.00 1000.10 999.57 999.81 1000.64 1001.07 1002.83 1004.59 1006.66 1005.99 1006.99 1008.51 1010.27 1011.34 1012.15 1011.34 1011.40 1011.58 1012.00 1012.86 1014.07 1015.12 1015.34 1014.50 1012.57 1009.97 1009.71 1010.03 1010.55 1010.82 1011.10 1011.37
989.00 989.99 990.91 991.87 992.86 993.68 994.58 995.43 996.19 996.96 997.88 998.65 999.58 1000.61 1001.50 1002.67 1003.59 1004.35 1004.40 1004.44 1005.13 1004.93 1002.01 1000.15 999.14 998.46 999.08 999.34 1001.01 1003.14 1004.03 1004.44 1005.20 1007.03 1009.47 1011.25 1012.34 1012.26 1012.13 1012.16 1011.03 1011.60 1011.59 1012.51 1012.74 1012.05 1010.73 1009.61 1009.68 1009.79 1010.15 1010.90 1011.34 1011.75
989.68 990.45 991.30 992.16 992.99 993.83 994.67 995.48 996.23 996.95 997.69 998.53 999.47 1000.30 1001.19 1001.73 1002.64 1003.69 1004.12 1004.61 1004.92 1004.39 1002.36 1001.38 999.87 999.67 999.20 998.96 999.29 1001.36 1002.91 1002.95 1004.23 1005.07 1008.41 1010.87 1012.02 1012.26 1012.32 1011.72 1010.84 1010.24 1010.18 1010.93 1011.29 1010.66 1010.23 1009.76 1009.68 1010.02 1010.65 1011.49 1012.06 1012.63
990.38 990.98 991.68 992.43 993.23 994.07 994.90 995.59 996.29 996.99 997.67 998.49 999.46 1000.23 1001.07 1002.01 1003.03 1003.93 1004.63 1004.98 1004.65 1003.75 1000.82 999.53 999.51 999.85 999.47 999.31 999.54 1000.36 1001.36 1002.29 1003.81 1005.66 1008.35 1010.56 1011.23 1010.76 1011.57 1010.86 1010.46 1009.89 1009.88 1010.51 1010.88 1010.52 1010.95 1011.22 1011.18 1011.43 1011.91 1012.32 1013.14 1013.89
990.86 991.39 992.06 992.79 993.56 994.29 995.01 995.66 996.38 997.02 997.58 998.44 999.27 1000.18 1000.81 1002.43 1003.32 1004.29 1005.33 1004.78 1004.10 1004.60 1002.97 1000.90 999.98 1000.23 1000.02 999.79 1000.22 1000.82 1001.79 1003.01 1004.86 1007.32 1008.98 1009.82 1009.70 1010.32 1011.06 1010.73 1010.30 1009.41 1009.62 1010.28 1011.03 1010.90 1011.21 1012.50 1012.40 1012.52 1013.05 1013.90 1014.48 1015.07
991.26 992.05 992.62 993.15 993.78 994.42 995.16 995.88 996.49 997.14 997.83 998.56 999.07 1000.31 1001.46 1002.16 1003.56 1004.63 1003.50 1002.73 1003.95 1004.00 1003.09 1002.23 1001.70 1000.92 1000.72 1001.09 1001.59 1002.20 1002.85 1003.96 1005.14 1006.91 1008.61 1008.85 1008.70 1009.29 1011.11 1011.30 1010.32 1009.45 1009.59 1009.55 1010.73 1011.05 1011.81 1013.09 1013.73 1014.15 1014.68 1015.58 1016.14 1016.59
991.61 992.14 992.16 993.29 994.04 994.60 995.51 996.11 996.82 997.08 997.51 998.59 999.48 1000.40 1001.30 1002.03 1002.70 1002.05 1001.79 1000.95 1001.63 1002.78 1001.36 1002.81 1003.20 1002.40 1002.00 1002.35 1003.22 1003.48 1003.52 1004.77 1005.88 1007.51 1008.63 1009.11 1009.23 1009.55 1010.79 1010.83 1010.39 1010.03 1010.21 1010.58 1010.99 1011.63 1013.11 1013.59 1015.12 1015.69 1016.26 1017.06 1017.58 1018.23
990.56 991.66 991.89 993.06 993.94 994.59 995.29 996.07 996.67 997.12 997.76 998.56 999.43 1000.69 1001.54 1002.28 1001.71 1002.03 1001.35 1000.83 1001.49 1001.76 1001.78 1004.31 1005.07 1004.66 1003.67 1004.50 1005.08 1004.94 1005.37 1006.30 1007.56 1008.66 1008.91 1009.65 1009.98 1010.16 1010.91 1010.46 1010.28 1010.45 1010.81 1011.40 1011.89 1012.14 1013.55 1014.95 1015.91 1016.84 1017.51 1018.07 1018.65 1019.30
990.34 990.96 991.63 992.34 993.46 994.58 995.27 995.91 996.75 997.74 998.50 999.12 999.78 1000.95 1001.87 1002.04 1002.17 1001.46 1000.80 1000.75 999.96 1001.07 1003.32 1004.94 1005.98 1005.97 1005.25 1006.13 1006.20 1006.50 1006.93 1008.70 1009.07 1009.60 1009.63 1009.87 1011.09 1011.24 1010.61 1010.56 1010.70 1010.80 1011.11 1012.10 1012.90 1013.80 1014.87 1015.80 1016.88 1017.77 1018.32 1018.92 1019.45 1020.26
990.96 991.15 991.70 992.76 993.47 994.35 995.16 996.10 996.99 997.75 998.06 998.03 999.16 999.84 999.61 999.75 999.47 999.61 999.70 1000.43 1001.60 1002.83 1003.90 1005.72 1006.36 1006.74 1006.59 1007.25 1007.99 1008.70 1008.88 1009.61 1010.23 1010.39 1009.88 1010.53 1011.67 1011.66 1011.33 1011.24 1011.35 1011.35 1011.79 1012.50 1013.71 1015.12 1015.95 1016.94 1017.75 1018.53 1019.24 1019.80 1020.41 1021.06
992.40 992.47 992.73 993.25 994.29 995.18 995.75 996.30 996.97 998.09 999.34 998.75 999.03 999.92 1000.55 1000.37 1000.53 1001.36 1002.45 1003.39 1004.04 1005.05 1005.75 1006.57 1006.45 1006.97 1007.02 1007.82 1008.83 1009.39 1009.75 1009.95 1010.49 1010.79 1010.83 1011.58 1012.05 1011.99 1011.96 1012.12 1012.35 1012.55 1012.82 1013.39 1014.09 1015.31 1016.45 1017.31 1018.52 1019.32 1020.14 1020.86 1021.54 1022.19
993.81 993.96 994.14 994.59 995.33 996.17 996.91 997.53 998.15 997.96 998.26 997.97 999.29 1000.80 1001.14 1001.71 1002.65 1003.67 1004.99 1005.38 1005.51 1006.93 1007.31 1007.44 1006.87 1007.38 1007.65 1007.81 1008.73 1009.52 1010.15 1010.32 1011.04 1010.98 1011.49 1012.09 1012.32 1012.16 1012.47 1013.03 1013.49 1013.86 1014.47 1015.14 1015.77 1016.72 1017.57 1018.52 1019.32 1020.15 1021.02 1021.77 1022.41 1022.99
995.71 995.50 995.70 996.10 996.63 997.21 997.83 998.02 997.97 998.27 997.81 998.39 1000.08 1002.64 1003.56 1005.49 1006.00 1006.91 1007.46 1007.68 1008.07 1008.60 1008.58 1008.21 1008.15 1008.17 1008.33 1008.42 1009.20 1009.71 1010.42 1011.04 1011.02 1011.78 1012.29 1012.59 1013.00 1013.18 1013.29 1013.85 1014.42 1015.01 1015.76 1016.53 1017.49 1018.28 1018.98 1019.87 1020.53 1021.06 1021.82 1022.47 1023.07 1023.55
996.75 996.91 997.12 997.82 998.21 998.23 998.34 998.77 998.70 998.42 998.91 1001.70 1003.72 1005.97 1006.86 1008.04 1008.80 1008.63 1008.54 1009.11 1009.70 1009.54 1008.82 1008.59 1008.84 1009.23 1009.23 1009.48 1009.97 1010.64 1011.33 1011.37 1012.01 1012.71 1012.86 1013.41 1013.95 1013.96 1014.08 1014.54 1015.13 1016.18 1017.07 1018.01 1018.99 1019.80 1020.43 1020.96 1021.59 1022.21 1022.76 1023.18 1023.61 1024.12
997.95 997.99 997.89 998.46 998.80 998.94 999.11 999.25 999.10 999.65 1002.47 1004.93 1006.16 1008.11 1008.85 1009.35 1009.43 1009.55 1009.62 1009.70 1009.99 1009.58 1009.22 1009.36 1009.71 1009.98 1010.21 1010.50 1010.78 1011.48 1012.03 1012.17 1012.35 1013.15 1013.64 1014.07 1014.43 1014.50 1014.84 1015.53 1016.43 1017.37 1018.26 1019.22 1020.15 1020.70 1021.29 1021.87 1022.40 1023.03 1023.53 1023.88 1024.25 1024.67
999.25 999.00 1000.16 1000.04 999.54 999.12 999.32 999.43 1000.48 1002.66 1006.01 1007.82 1009.12 1009.77 1009.92 1009.92 1010.19 1010.16 1010.15 1010.30 1010.10 1010.03 1010.05 1010.19 1010.47 1010.68 1011.03 1011.17 1011.39 1011.74 1012.22 1013.06 1013.76 1014.12 1014.31 1014.55 1014.91 1015.29 1015.94 1016.60 1017.37 1018.23 1019.06 1019.90 1020.58 1021.16 1021.79 1022.41 1022.89 1023.42 1023.96 1024.37 1024.72 1025.04
1000.26 1001.84 1001.87 1001.00 1000.49 1000.21 1000.22 1001.39 1004.11 1007.19 1009.11 1010.13 1011.01 1011.02 1010.94 1011.26 1011.38 1011.32 1011.31 1011.09 1010.83 1010.81 1010.92 1010.76 1011.04 1011.77 1011.89 1012.17 1013.01 1013.46 1013.99 1014.38 1014.58 1014.85 1015.07 1015.22 1015.51 1016.07 1016.86 1017.58 1018.28 1018.94 1019.68 1020.38 1021.01 1021.63 1022.19 1022.73 1023.32 1023.87 1024.31 1024.71 1025.13 1025.40
1002.50 1002.52 1001.87 1001.44 1001.17 1001.71 1002.85 1004.41 1007.08 1009.41 1011.01 1011.77 1011.88 1012.08 1011.94 1011.97 1011.95 1011.89 1011.60 1010.97 1010.78 1011.10 1011.46 1011.87 1012.16 1012.76 1013.54 1014.16 1014.91 1015.19 1015.34 1015.44 1015.57 1015.74 1015.85 1016.12 1016.55 1017.07 1017.59 1018.19 1019.04 1019.64 1020.32 1021.02 1021.64 1022.20 1022.73 1023.34 1023.88 1024.43 1024.73 1025.10 1025.55 1025.84
1003.41 1002.95 1002.30 1001.83 1001.78 1003.03 1005.42 1007.30 1008.29 1010.81 1012.34 1012.66 1012.93 1012.87 1012.90 1012.95 1012.78 1012.47 1011.99 1011.41 1011.14 1011.32 1011.99 1013.16 1014.44 1015.52 1016.27 1016.83 1016.93 1016.62 1016.45 1016.41 1016.59 1016.86 1017.01 1017.15 1017.49 1017.99 1018.63 1019.23 1019.83 1020.46 1021.03 1021.59 1022.24 1022.95 1023.56 1023.99 1024.55 1025.09 1025.50 1025.81 1026.27 1026.50
1003.47 1003.29 1003.00 1002.69 1002.41 1004.62 1007.38 1009.09 1009.52 1011.35 1012.81 1013.59 1013.50 1013.66 1013.62 1013.72 1013.49 1013.20 1012.89 1012.61 1012.41 1012.85 1014.60 1016.29 1017.61 1018.25 1018.42 1018.65 1018.43 1018.14 1017.85 1017.54 1017.62 1017.91 1018.33 1018.61 1018.89 1019.24 1019.79 1020.24 1020.89 1021.55 1022.14 1022.69 1023.25 1023.78 1024.40 1025.06 1025.64 1026.00 1026.24 1026.61 1027.00 1027.40
1003.87 1004.21 1003.94 1003.70 1004.97 1006.85 1009.44 1010.69 1011.55 1012.53 1013.20 1013.70 1013.72 1013.91 1014.41 1014.30 1014.31 1014.29 1014.47 1014.59 1014.94 1016.82 1018.14 1019.04 1019.43 1019.86 1019.99 1019.90 1019.65 1019.39 1019.18 1018.91 1018.91 1018.72 1019.10 1019.82 1020.26 1020.51 1021.09 1021.54 1021.98 1022.59 1023.35 1024.06 1024.67 1025.44 1025.92 1026.41 1026.88 1027.07 1027.26 1027.60 1027.79 1027.87
1005.50 1005.06 1005.59 1006.17 1008.14 1009.79 1011.48 1012.04 1012.40 1012.72 1013.45 1013.99 1014.12 1014.50 1015.21 1015.55 1015.58 1015.71 1016.44 1017.19 1018.98 1019.93 1020.30 1020.64 1020.79 1020.95 1021.11 1021.14 1021.03 1020.79 1020.68 1020.50 1020.27 1020.24 1020.61 1021.14 1021.79 1022.32 1022.95 1023.38 1023.63 1024.36 1024.95 1025.49 1025.94 1026.55 1027.03 1027.46 1027.87 1028.05 1028.14 1028.32 1028.04 1028.14
1005.93 1006.35 1007.72 1009.22 1010.75 1012.32 1013.95 1013.16 1013.74 1014.09 1014.43 1014.83 1014.83 1015.55 1016.22 1016.45 1016.56 1016.48 1018.58 1020.32 1021.38 1021.72 1021.67 1021.78 1021.96 1022.12 1022.35 1022.52 1022.33 1022.22 1022.15 1022.08 1022.23 1022.53 1022.89 1023.33 1023.87 1024.39 1024.74 1025.12 1025.46 1025.84 1026.33 1026.82 1027.05 1027.42 1027.87 1028.29 1028.52 1028.72 1028.89 1028.88 1028.87 1028.79
1007.52 1009.57 1011.23 1012.30 1013.30 1014.56 1014.67 1014.76 1014.48 1015.12 1015.74 1015.71 1016.19 1016.84 1017.30 1017.52 1017.49 1018.74 1020.71 1022.25 1023.13 1023.09 1022.87 1022.76 1022.74 1023.10 1023.44 1023.68 1023.92 1023.99 1023.92 1023.90 1023.99 1024.23 1024.60 1024.87 1025.32 1025.92 1026.35 1026.74 1027.07 1027.44 1027.65 1027.89 1028.22 1028.53 1028.78 1029.00 1029.20 1029.40 1029.50 1029.53 1029.44 1029.29
1010.51 1013.67 1013.90 1014.79 1014.94 1015.21 1015.81 1015.96 1016.10 1016.26 1016.78 1016.77 1017.11 1017.72 1018.11 1018.13 1018.90 1020.58 1022.12 1023.51 1024.36 1024.52 1024.51 1024.16 1024.27 1024.32 1024.74 1025.18 1025.42 1025.51 1025.49 1025.39 1025.51 1025.80 1026.13 1026.31 1026.56 1027.00 1027.45 1027.91 1028.41 1028.84 1028.98 1029.15 1029.41 1029.54 1029.70 1029.82 1029.94 1030.07 1030.07 1029.88 1029.72 1029.53
1014.07 1016.01 1016.29 1016.43 1016.76 1016.66 1016.81 1017.06 1017.24 1017.39 1017.48 1017.85 1018.42 1018.75 1018.73 1019.22 1020.70 1022.66 1024.06 1025.15 1025.67 1025.91 1025.92 1025.69 1025.49 1025.77 1026.16 1026.43 1026.64 1026.79 1026.87 1026.54 1026.63 1026.96 1027.50 1027.57 1027.69 1027.82 1028.30 1028.84 1029.40 1030.04 1030.03 1030.02 1030.32 1030.56 1030.55 1030.58 1030.61 1030.52 1030.32 1030.10 1029.93 1029.81
1016.27 1017.22 1017.52 1017.20 1017.27 1017.40 1017.66 1017.66 1017.51 1017.90 1018.50 1019.01 1019.40 1019.53 1019.96 1021.09 1023.21 1024.75 1025.77 1026.24 1026.58 1026.99 1027.06 1026.95 1026.80 1026.90 1027.22 1027.56 1027.79 1027.92 1027.85 1027.70 1027.76 1028.13 1028.53 1028.73 1028.94 1029.22 1029.56 1030.14 1030.34 1030.79 1030.59 1030.54 1030.47 1030.71 1030.79 1030.81 1030.82 1030.79 1030.66 1030.50 1030.36 1030.17
1017.79 1018.21 1018.17 1018.21 1018.06 1018.07 1018.42 1018.54 1018.97 1019.45 1019.92 1020.24 1020.40 1021.72 1023.04 1024.35 1026.05 1026.77 1027.07 1027.15 1027.27 1027.53 1027.78 1027.99 1028.07 1028.20 1028.39 1028.60 1028.78 1028.84 1028.84 1028.76 1028.62 1028.86 1029.26 1029.75 1029.98 1030.20 1030.45 1030.71 1030.72 1030.25 1030.49 1030.47 1030.66 1030.33 1030.26 1030.31 1030.58 1030.66 1030.64 1030.47 1030.28 1029.56
1018.68 1018.91 1018.96 1019.09 1019.04 1019.33 1019.92 1020.06 1020.53 1021.26 1021.68 1021.57 1022.38 1024.19 1025.90 1027.40 1028.35 1028.18 1028.07 1028.00 1028.03 1028.09 1028.36 1028.65 1028.92 1028.98 1029.25 1029.59 1029.89 1030.13 1030.19 1030.09 1030.04 1030.36 1030.60 1030.98 1030.98 1031.31 1031.11 1031.07 1031.17 1031.05 1030.99 1031.23 1030.50 1030.02 1029.66 1029.47 1029.37 1029.63 1029.85 1029.91 1029.51 1029.43
1019.48 1019.29 1019.60 1019.93 1020.55 1020.99 1021.58 1021.63 1021.82 1022.53 1022.86 1023.23 1024.37 1026.13 1027.64 1028.84 1029.74 1029.69 1029.36 1029.14 1029.09 1029.38 1029.72 1029.95 1030.08 1030.22 1030.63 1030.64 1031.08 1031.40 1031.55 1031.53 1031.71 1031.94 1032.21 1032.47 1032.36 1032.06 1031.63 1031.39 1031.39 1031.44 1031.09 1031.30 1030.78 1030.46 1030.12 1029.85 1029.54 1029.46 1029.81 1029.73 1029.63 1029.79
1020.14 1020.07 1020.38 1020.93 1021.63 1022.07 1022.20 1022.27 1022.41 1022.74 1023.37 1024.52 1025.26 1026.53 1028.26 1029.67 1030.44 1030.79 1030.75 1030.49 1030.55 1030.57 1030.81 1031.20 1031.38 1031.56 1031.71 1031.85 1032.04 1032.25 1032.48 1032.41 1032.31 1032.44 1032.53 1032.53 1032.56 1032.53 1032.41 1031.88 1031.59 1031.61 1031.22 1031.14 1030.86 1030.67 1030.50 1030.51 1030.48 1030.16 1030.11 1030.07 1030.15 1030.31
1021.26 1021.53 1021.72 1022.23 1022.58 1022.64 1022.57 1022.75 1023.02 1023.45 1024.48 1025.48 1026.76 1027.56 1028.67 1029.49 1031.01 1031.92 1032.28 1031.91 1031.87 1031.99 1032.17 1032.20 1032.19 1032.43 1032.42 1032.54 1032.73 1032.80 1032.87 1032.78 1032.65 1032.57 1032.60 1032.46 1032.66 1032.62 1032.47 1032.25 1032.03 1031.39 1031.40 1031.48 1031.26 1030.98 1030.78 1030.76 1030.54 1030.31 1030.19 1030.34 1030.43 1030.58
1021.86 1022.22 1022.57 1023.07 1023.30 1023.52 1023.47 1023.67 1023.88 1024.97 1025.83 1026.83 1027.87 1028.45 1029.40 1030.53 1031.80 1032.54 1032.72 1032.79 1033.00 1033.21 1033.27 1033.08 1032.74 1032.47 1032.40 1032.93 1033.14 1033.09 1032.92 1033.04 1032.64 1032.17 1031.98 1031.76 1031.90 1032.08 1032.43 1032.26 1032.13 1032.10 1031.96 1031.62 1031.43 1031.22 1031.10 1030.92 1030.74 1030.48 1030.38 1030.47 1030.59 1030.87
Thickness
5368 5367 5366 5366 5365 5363 5364 5361 5360 5363 5368 5365 5375 5390 5416 5431 5446 5463 5487 5502 5525 5555 5579 5597 5608 5606 5610 5613 5596 5604 5580 5602 5595 5594 5584 5580 5573 5590 5588 5599 5586 5578 5562 5545 5553 5550 5562 5620 5620 5598 5597 5608 5606 5604
5368 5367 5365 5364 5364 5364 5364 5365 5365 5367 5368 5372 5379 5398 5422 5437 5454 5471 5492 5512 5522 5535 5571 5593 5610 5627 5626 5633 5620 5612 5608 5619 5621 5603 5593 5579 5567 5569 5584 5573 5611 5583 5592 5576 5580 5574 5602 5621 5612 5614 5610 5603 5603 5597
5368 5366 5365 5364 5364 5364 5365 5367 5369 5372 5375 5377 5388 5410 5431 5453 5469 5483 5500 5511 5523 5540 5562 5573 5591 5608 5623 5631 5641 5617 5618 5632 5628 5629 5601 5585 5579 5564 5572 5573 5602 5614 5615 5587 5592 5607 5608 5612 5614 5607 5601 5594 5588 5579
5363 5363 5363 5363 5363 5364 5365 5367 5370 5373 5377 5382 5398 5423 5442 5458 5474 5485 5491 5503 5517 5536 5542 5576 5599 5599 5614 5624 5631 5623 5630 5633 5629 5617 5588 5577 5577 5599 5570 5591 5584 5598 5605 5597 5591 5601 5592 5588 5588 5586 5581 5577 5569 5558
5361 5359 5361 5361 5362 5364 5365 5368 5370 5375 5383 5395 5416 5435 5453 5461 5473 5487 5496 5517 5526 5532 5549 5565 5589 5596 5604 5613 5622 5625 5624 5621 5611 5592 5569 5580 5582 5586 5567 5575 5574 5602 5594 5573 5556 5590 5583 5573 5573 5571 5564 5554 5549 5537
5376 5367 5362 5363 5365 5366 5367 5371 5376 5382 5394 5413 5436 5448 5457 5473 5483 5494 5512 5530 5511 5522 5547 5548 5571 5586 5599 5603 5607 5611 5611 5608 5607 5593 5579 5590 5601 5585 5556 5550 5592 5595 5592 5592 5579 5580 5573 5560 5550 5544 5537 5526 5519 5512
5400 5393 5389 5380 5376 5380 5380 5386 5391 5409 5428 5442 5451 5462 5474 5487 5492 5502 5530 5541 5540 5537 5564 5552 5549 5573 5588 5590 5586 5593 5602 5595 5593 5587 5570 5577 5587 5581 5545 5556 5582 5582 5578 5575 5570 5566 5553 5551 5528 5521 5512 5503 5496 5488
5437 5427 5428 5420 5415 5418 5421 5428 5433 5444 5451 5459 5469 5478 5486 5496 5518 5518 5530 5545 5542 5551 5558 5530 5535 5551 5572 5559 5557 5577 5574 5575 5570 5568 5566 5556 5565 5548 5553 5572 5572 5571 5566 5560 5554 5551 5536 5521 5510 5499 5493 5485 5477 5468
5466 5460 5457 5455 5452 5448 5451 5457 5459 5462 5467 5475 5481 5483 5486 5492 5509 5519 5538 5543 5554 5551 5526 5520 5530 5539 5555 5543 5546 5557 5561 5542 5549 5539 5548 5552 5527 5548 5566 5564 5559 5558 5556 5547 5538 5526 5514 5503 5493 5484 5475 5467 5462 5450
5485 5484 5480 5475 5475 5474 5473 5475 5478 5483 5492 5502 5504 5505 5505 5515 5528 5535 5545 5538 5535 5533 5529 5516 5525 5533 5542 5522 5527 5531 5526 5525 5523 5526 5547 5537 5517 5539 5543 5542 5540 5543 5540 5531 5513 5500 5493 5484 5476 5467 5457 5450 5442 5432
5491 5492 5493 5492 5487 5486 5488 5491 5495 5495 5492 5507 5511 5507 5510 5518 5528 5521 5513 5515 5519 5509 5513 5512 5520 5523 5531 5524 5521 5516 5518 5516 5523 5524 5523 5508 5511 5528 5525 5523 5519 5518 5516 5512 5505 5491 5478 5469 5454 5445 5434 5424 5413 5403
5496 5497 5498 5497 5495 5493 5494 5496 5498 5509 5514 5523 5518 5514 5517 5517 5512 5504 5498 5502 5516 5513 5501 5508 5517 5522 5512 5524 5508 5512 5510 5506 5514 5515 5518 5521 5511 5511 5509 5504 5501 5496 5488 5482 5476 5466 5456 5447 5437 5424 5412 5402 5393 5385
5493 5498 5499 5499 5499 5498 5498 5503 5509 5514 5524 5526 5513 5497 5505 5480 5493 5486 5495 5496 5499 5486 5489 5493 5500 5507 5505 5511 5504 5509 5519 5506 5496 5500 5505 5494 5497 5493 5491 5486 5482 5476 5469 5460 5448 5438 5429 5417 5409 5403 5394 5385 5377 5370
5495 5496 5498 5496 5496 5499 5503 5504 5510 5518 5520 5496 5483 5474 5476 5476 5462 5469 5478 5476 5467 5471 5485 5493 5492 5493 5490 5495 5490 5502 5486 5491 5496 5494 5496 5477 5471 5472 5473 5473 5468 5455 5441 5430 5420 5409 5401 5396 5388 5381 5374 5368 5359 5351
5492 5495 5498 5498 5498 5500 5503 5505 5511 5511 5489 5471 5470 5464 5456 5450 5455 5458 5459 5464 5464 5473 5479 5486 5483 5486 5481 5484 5478 5477 5480 5490 5490 5483 5468 5460 5458 5458 5457 5448 5436 5426 5417 5408 5396 5389 5382 5376 5369 5362 5354 5347 5340 5332
5486 5491 5485 5489 5496 5502 5505 5508 5503 5488 5461 5451 5442 5450 5448 5456 5455 5456 5457 5459 5463 5465 5467 5469 5474 5477 5474 5475 5483 5480 5486 5473 5459 5449 5446 5446 5444 5440 5434 5426 5418 5409 5399 5389 5382 5375 5367 5359 5352 5344 5335 5327 5318 5312
5481 5469 5473 5484 5491 5496 5500 5494 5474 5450 5438 5436 5433 5430 5437 5440 5442 5444 5444 5450 5453 5457 5464 5464 5470 5460 5456 5466 5459 5450 5449 5442 5436 5433 5432 5431 5427 5421 5412 5404 5396 5388 5380 5372 5365 5357 5350 5342 5333 5324 5319 5312 5303 5294
5460 5464 5472 5479 5485 5484 5479 5469 5448 5433 5425 5421 5426 5425 5426 5427 5433 5434 5439 5446 5452 5451 5450 5451 5448 5454 5449 5449 5436 5427 5420 5418 5417 5415 5415 5412 5407 5401 5397 5390 5378 5369 5361 5353 5346 5338 5331 5323 5315 5307 5300 5293 5286 5277
5456 5462 5469 5475 5478 5469 5450 5440 5439 5419 5411 5411 5410 5413 5416 5417 5420 5425 5431 5437 5441 5440 5440 5432 5420 5413 5406 5396 5394 5398 5402 5401 5401 5396 5392 5390 5385 5379 5371 5363 5356 5349 5343 5336 5326 5316 5309 5302 5293 5284 5277 5268 5260 5254
5456 5459 5463 5468 5473 5452 5435 5420 5424 5411 5404 5398 5401 5404 5404 5404 5408 5410 5417 5421 5425 5420 5406 5392 5380 5375 5374 5370 5371 5374 5376 5380 5380 5375 5369 5365 5359 5355 5349 5343 5335 5326 5318 5310 5304 5296 5287 5276 5268 5261 5253 5244 5235 5227
5448 5448 5453 5457 5446 5435 5414 5406 5404 5397 5393 5393 5392 5393 5390 5390 5396 5397 5393 5393 5391 5376 5366 5358 5354 5349 5348 5349 5350 5352 5352 5353 5353 5357 5352 5342 5336 5333 5326 5320 5313 5305 5295 5284 5275 5264 5257 5248 5241 5235 5226 5217 5213 5210
5431 5437 5432 5430 5415 5405 5393 5392 5389 5389 5385 5382 5381 5381 5375 5371 5373 5376 5366 5361 5346 5340 5337 5333 5331 5330 5329 5327 5327 5328 5328 5327 5327 5325 5321 5317 5309 5304 5297 5288 5283 5273 5265 5257 5249 5239 5231 5224 5216 5211 5205 5200 5199 5195
5428 5426 5412 5403 5386 5373 5359 5375 5365 5369 5357 5362 5365 5361 5359 5356 5353 5355 5337 5324 5315 5313 5314 5313 5310 5309 5306 5304 5305 5305 5304 5303 5300 5296 5290 5284 5277 5270 5264 5258 5252 5245 5237 5230 5225 5219 5211 5205 5199 5193 5189 5184 5179 5174
5417 5399 5383 5374 5367 5363 5356 5351 5361 5355 5348 5359 5354 5341 5342 5335 5336 5324 5313 5302 5293 5293 5296 5297 5297 5292 5288 5283 5279 5278 5278 5276 5273 5269 5263 5258 5251 5243 5236 5229 5223 5217 5212 5207 5203 5198 5193 5186 5182 5177 5169 5162 5156 5152
5381 5357 5360 5347 5353 5346 5338 5356 5343 5342 5340 5340 5329 5327 5328 5324 5313 5310 5298 5284 5270 5268 5269 5274 5270 5270 5265 5259 5255 5253 5251 5250 5245 5240 5236 5233 5227 5221 5215 5208 5200 5194 5190 5184 5178 5172 5169 5165 5159 5153 5148 5142 5140 5136
5353 5342 5344 5343 5339 5341 5341 5335 5330 5327 5328 5323 5316 5312 5314 5312 5291 5277 5269 5255 5247 5244 5245 5247 5250 5244 5238 5235 5232 5229 5226 5227 5224 5218 5212 5210 5206 5203 5197 5191 5182 5171 5169 5163 5156 5149 5146 5142 5136 5133 5128 5128 5125 5121
5336 5330 5325 5326 5325 5324 5320 5319 5317 5306 5295 5297 5298 5304 5290 5297 5263 5253 5239 5234 5231 5226 5226 5226 5227 5226 5222 5217 5213 5210 5208 5207 5204 5199 5192 5188 5183 5177 5171 5161 5154 5151 5150 5145 5140 5134 5126 5121 5116 5113 5108 5108 5103 5098
5316 5313 5312 5311 5311 5308 5299 5296 5286 5285 5285 5285 5288 5266 5259 5252 5231 5226 5223 5222 5218 5216 5213 5210 5208 5205 5202 5198 5194 5191 5188 5186 5184 5179 5174 5167 5160 5154 5150 5145 5140 5136 5133 5128 5122 5117 5111 5105 5099 5094 5090 5085 5080 5078
5301 5299 5291 5284 5299 5292 5284 5282 5278 5269 5265 5269 5256 5243 5229 5214 5206 5208 5208 5207 5205 5204 5199 5196 5190 5187 5183 5177 5172 5167 5163 5161 5158 5150 5144 5140 5138 5130 5128 5126 5122 5118 5113 5107 5103 5099 5095 5090 5085 5079 5073 5070 5067 5062
5289 5284 5280 5270 5259 5271 5264 5262 5261 5252 5248 5247 5231 5218 5205 5193 5186 5185 5186 5186 5185 5180 5176 5171 5168 5164 5159 5156 5148 5143 5139 5135 5130 5123 5114 5109 5108 5112 5111 5107 5101 5097 5092 5086 5079 5075 5071 5067 5062 5056 5052 5050 5048 5041
5280 5277 5270 5266 5256 5255 5252 5249 5247 5242 5237 5223 5214 5201 5187 5175 5168 5165 5163 5163 5161 5159 5154 5145 5143 5139 5136 5133 5128 5119 5114 5115 5113 5109 5105 5100 5096 5091 5087 5083 5078 5073 5069 5064 5059 5052 5046 5041 5039 5035 5029 5026 5026 5020
5267 5264 5247 5244 5246 5242 5243 5238 5235 5230 5219 5209 5192 5178 5171 5167 5145 5140 5139 5139 5137 5135 5132 5128 5124 5118 5116 5114 5111 5108 5104 5100 5097 5094 5089 5082 5076 5070 5065 5060 5054 5049 5043 5038 5033 5027 5025 5021 5017 5016 5011 5007 5003 4998
5252 5245 5238 5230 5228 5227 5223 5214 5218 5202 5191 5182 5174 5167 5156 5144 5133 5128 5125 5123 5118 5114 5113 5112 5110 5108 5106 5102 5097 5093 5088 5083 5079 5074 5069 5063 5057 5049 5042 5037 5031 5025 5019 5013 5009 5005 5002 5001 5000 4997 4993 4987 4984 4982